{"data":{"norad_id":65609,"epoch":"2026-05-25T04:15:34.852608Z","epoch_age_seconds":53556,"freshness":"FRESH","line1":"1 65609U 25207T   26145.17748672  .00004630  00000+0  32464-3 0  9996","line2":"2 65609  97.4457 213.7361 0001884 139.9133 220.2233 15.05658551 39611","mean_motion":15.05658551,"eccentricity":0.0001884,"inclination_deg":97.4457,"raan_deg":213.7361,"arg_perigee_deg":139.9133,"mean_anomaly_deg":220.2233,"bstar":0.00032464,"rev_number":3961,"period_min":95.639213754248,"perigee_km":548.17976084787,"apogee_km":550.79008878914,"semimajor_km":6927.6219248185,"source":"CELESTRAK","updated_at":"2026-05-25T13:38:20.855720Z"}}